TimeEDT,TemperatureF,Dew PointF,Humidity,Sea Level PressureIn,VisibilityMPH,Wind Direction,Wind SpeedMPH,Gust SpeedMPH,PrecipitationIn,Events,Conditions,WindDirDegrees,DateUTC
12:53 AM,43.0,25.0,49,30.02,10.0,SSW,3.5,-,N/A,,Overcast,210,2013-03-23 04:53:00
1:53 AM,44.1,26.1,49,30.02,10.0,SW,3.5,-,N/A,,Overcast,230,2013-03-23 05:53:00
2:53 AM,44.1,26.1,49,30.01,10.0,Calm,Calm,-,N/A,,Overcast,0,2013-03-23 06:53:00
3:53 AM,43.0,27.0,53,29.99,10.0,SW,5.8,-,N/A,,Overcast,220,2013-03-23 07:53:00
4:53 AM,39.9,27.0,60,29.99,10.0,WSW,4.6,-,N/A,,Clear,250,2013-03-23 08:53:00
5:53 AM,37.9,27.0,65,29.99,10.0,Calm,Calm,-,N/A,,Mostly Cloudy,0,2013-03-23 09:53:00
6:53 AM,35.1,28.0,76,30.01,10.0,SSW,5.8,-,N/A,,Clear,200,2013-03-23 10:53:00
7:53 AM,39.0,30.0,70,30.01,10.0,Calm,Calm,-,N/A,,Partly Cloudy,0,2013-03-23 11:53:00
8:53 AM,42.1,28.0,58,30.03,10.0,West,3.5,-,N/A,,Overcast,280,2013-03-23 12:53:00
9:53 AM,44.1,30.0,58,30.04,9.0,WNW,4.6,-,0.00,Rain,Light Rain,300,2013-03-23 13:53:00
10:53 AM,46.0,30.9,56,30.04,10.0,NW,3.5,-,0.00,,Overcast,310,2013-03-23 14:53:00
11:53 AM,46.9,32.0,56,30.05,10.0,Calm,Calm,-,0.00,,Overcast,0,2013-03-23 15:53:00
12:53 PM,48.0,30.0,50,30.03,10.0,Calm,Calm,-,N/A,,Overcast,0,2013-03-23 16:53:00
1:53 PM,48.9,30.0,48,29.99,10.0,NNE,3.5,-,N/A,,Overcast,30,2013-03-23 17:53:00
2:53 PM,50.0,30.9,48,29.98,10.0,Calm,Calm,-,N/A,,Overcast,0,2013-03-23 18:53:00
3:53 PM,51.1,30.9,46,29.95,10.0,Calm,Calm,-,N/A,,Overcast,0,2013-03-23 19:53:00
4:53 PM,54.0,30.0,40,29.93,10.0,NNE,5.8,-,N/A,,Overcast,30,2013-03-23 20:53:00
5:53 PM,55.0,30.9,40,29.90,10.0,NNE,3.5,-,N/A,,Scattered Clouds,20,2013-03-23 21:53:00
6:53 PM,53.1,32.0,45,29.90,10.0,NNE,4.6,-,N/A,,Overcast,20,2013-03-23 22:53:00
7:53 PM,52.0,32.0,47,29.94,10.0,Calm,Calm,-,N/A,,Overcast,0,2013-03-23 23:53:00
8:53 PM,46.9,34.0,61,29.97,10.0,Calm,Calm,-,N/A,,Clear,0,2013-03-24 00:53:00
9:53 PM,45.0,35.1,68,29.97,10.0,Calm,Calm,-,N/A,,Clear,0,2013-03-24 01:53:00
10:53 PM,42.1,34.0,73,29.94,10.0,North,3.5,-,N/A,,Clear,10,2013-03-24 02:53:00
11:53 PM,39.0,33.1,79,29.92,10.0,North,3.5,-,N/A,,Clear,10,2013-03-24 03:53:00